| time (UTC) | temp C | wind direction | speed KPH | gust KPH | rain 1hr cm | rain 24hr cm | rain mn cm | humidity % | barometer mb |
| 20260507213051 | 16 | 0 | 0.0 | 4.8 | 0.00 | 0.00 | 0.00 | 62 | 1018.7 |
| 20260507211555 | 16 | 323 | 1.6 | 9.7 | 0.00 | 0.00 | 0.00 | 62 | 1018.9 |
| 20260507204551 | 16 | 310 | 3.2 | 6.4 | 0.00 | 0.00 | 0.00 | 68 | 1019.0 |
| 20260507203055 | 15 | 0 | 0.0 | 8.0 | 0.00 | 0.00 | 0.00 | 70 | 1019.2 |
| 20260507201549 | 15 | 329 | 0.0 | 6.4 | 0.00 | 0.00 | 0.00 | 69 | 1019.3 |
| 20260507200051 | 15 | 336 | 1.6 | 11.3 | 0.00 | 0.00 | 0.00 | 69 | 1019.3 |
| 20260507194554 | 15 | 298 | 1.6 | 6.4 | 0.00 | 0.00 | 0.00 | 70 | 1019.5 |
| 20260507193055 | 14 | 0 | 1.6 | 6.4 | 0.00 | 0.00 | 0.00 | 70 | 1019.7 |
| 20260507191553 | 14 | 0 | 1.6 | 8.0 | 0.00 | 0.00 | 0.00 | 74 | 1019.7 |
| 20260507190052 | 13 | 19 | 1.6 | 12.9 | 0.00 | 0.00 | 0.00 | 73 | 1020.0 |
| 20260507184554 | 13 | 0 | 1.6 | 12.9 | 0.00 | 0.00 | 0.00 | 72 | 1020.0 |
| 20260507183057 | 13 | 0 | 3.2 | 9.7 | 0.00 | 0.00 | 0.00 | 73 | 1020.1 |
| 20260507181552 | 13 | 352 | 0.0 | 6.4 | 0.00 | 0.00 | 0.00 | 74 | 1020.4 |
| 20260507180101 | 12 | 0 | 1.6 | 4.8 | 0.00 | 0.00 | 0.00 | 74 | 1020.4 |
| 20260507174608 | 12 | 324 | 0.0 | 4.8 | 0.00 | 0.00 | 0.00 | 78 | 1020.6 |
| 20260507173056 | 12 | 0 | 0.0 | 6.4 | 0.00 | 0.00 | 0.00 | 80 | 1020.7 |
| 20260507171610 | 11 | 0 | 1.6 | 8.0 | 0.00 | 0.00 | 0.00 | 79 | 1020.7 |
| 20260507170054 | 11 | 272 | 1.6 | 6.4 | 0.00 | 0.00 | 0.00 | 82 | 1020.6 |
| 20260507164556 | 11 | 0 | 1.6 | 4.8 | 0.00 | 0.00 | 0.00 | 81 | 1020.6 |
| 20260507163054 | 10 | 0 | 0.0 | 3.2 | 0.00 | 0.00 | 0.00 | 82 | 1020.5 |
| 20260507161601 | 10 | 315 | 0.0 | 4.8 | 0.00 | 0.00 | 0.00 | 85 | 1020.4 |
| 20260507160058 | 10 | 0 | 0.0 | 1.6 | 0.00 | 0.00 | 0.00 | 85 | 1020.5 |
| 20260507154601 | 10 | 0 | 0.0 | 1.6 | 0.00 | 0.00 | 0.00 | 86 | 1020.5 |
| 20260507153103 | 10 | 0 | 0.0 | 3.2 | 0.00 | 0.00 | 0.00 | 84 | 1020.6 |
| 20260507151554 | 9 | 0 | 0.0 | 3.2 | 0.00 | 0.00 | 0.00 | 85 | 1020.6 |
| 20260507150057 | 9 | 0 | 0.0 | 6.4 | 0.00 | 0.00 | 0.00 | 85 | 1020.6 |
| 20260507144555 | 8 | 0 | 0.0 | 3.2 | 0.00 | 0.00 | 0.00 | 85 | 1020.6 |
| 20260507143057 | 8 | 0 | 0.0 | 3.2 | 0.00 | 0.00 | 0.00 | 86 | 1020.5 |
| 20260507141556 | 8 | 0 | 0.0 | 1.6 | 0.00 | 0.00 | 0.00 | 87 | 1020.6 |
| 20260507140106 | 8 | 0 | 0.0 | 4.8 | 0.00 | 0.00 | 0.00 | 87 | 1020.4 |
| 20260507134552 | 8 | 0 | 0.0 | 6.4 | 0.00 | 0.00 | 0.00 | 87 | 1020.4 |
| 20260507133055 | 8 | 0 | 0.0 | 3.2 | 0.00 | 0.00 | 0.00 | 87 | 1020.4 |
| 20260507131550 | 8 | 0 | 0.0 | 6.4 | 0.00 | 0.00 | 0.00 | 88 | 1020.4 |
| 20260507130106 | 8 | 0 | 0.0 | 1.6 | 0.00 | 0.00 | 0.00 | 88 | 1020.4 |
| 20260507124620 | 8 | 0 | 0.0 | 4.8 | 0.00 | 0.00 | 0.00 | 88 | 1020.4 |
| 20260507123050 | 8 | 0 | 0.0 | 1.6 | 0.00 | 0.00 | 0.00 | 88 | 1020.4 |
| 20260507121552 | 8 | 275 | 4.8 | 11.3 | 0.00 | 0.00 | 0.00 | 87 | 1020.5 |
| 20260507120053 | 9 | 0 | 0.0 | 1.6 | 0.00 | 0.00 | 0.00 | 89 | 1020.5 |
| 20260507114609 | 9 | 278 | 0.0 | 6.4 | 0.00 | 0.00 | 0.00 | 88 | 1020.6 |
| 20260507113055 | 9 | 246 | 0.0 | 6.4 | 0.00 | 0.00 | 0.00 | 89 | 1020.5 |
| 20260507111552 | 9 | 0 | 0.0 | 1.6 | 0.00 | 0.00 | 0.00 | 89 | 1020.6 |
| 20260507110057 | 10 | 270 | 0.0 | 4.8 | 0.00 | 0.00 | 0.00 | 89 | 1020.6 |
| 20260507104555 | 10 | 261 | 0.0 | 12.9 | 0.00 | 0.00 | 0.00 | 89 | 1020.8 |
| 20260507103054 | 10 | 0 | 0.0 | 4.8 | 0.00 | 0.00 | 0.00 | 88 | 1020.9 |
| 20260507101552 | 10 | 0 | 0.0 | 6.4 | 0.00 | 0.00 | 0.00 | 88 | 1020.9 |
| 20260507100054 | 10 | 0 | 0.0 | 3.2 | 0.00 | 0.00 | 0.00 | 88 | 1021.2 |
| 20260507094555 | 10 | 0 | 0.0 | 3.2 | 0.00 | 0.00 | 0.00 | 88 | 1021.2 |
| 20260507093056 | 10 | 288 | 0.0 | 1.6 | 0.00 | 0.00 | 0.00 | 88 | 1021.3 |
| 20260507091552 | 10 | 0 | 0.0 | 3.2 | 0.00 | 0.00 | 0.00 | 88 | 1021.3 |
| 20260507090051 | 10 | 0 | 0.0 | 3.2 | 0.00 | 0.00 | 0.00 | 88 | 1021.5 |
| 20260507084553 | 10 | 0 | 0.0 | 4.8 | 0.00 | 0.00 | 0.00 | 88 | 1021.5 |
| 20260507083051 | 10 | 0 | 0.0 | 4.8 | 0.00 | 0.00 | 0.00 | 87 | 1021.5 |
| 20260507081553 | 10 | 203 | 0.0 | 4.8 | 0.00 | 0.00 | 0.00 | 87 | 1021.5 |
| 20260507080100 | 10 | 0 | 0.0 | 1.6 | 0.00 | 0.00 | 0.00 | 87 | 1021.5 |
| 20260507074606 | 10 | 0 | 0.0 | 1.6 | 0.00 | 0.00 | 0.00 | 88 | 1021.5 |
| 20260507073052 | 10 | 0 | 0.0 | 4.8 | 0.00 | 0.00 | 0.00 | 86 | 1021.3 |
| 20260507071554 | 11 | 0 | 0.0 | 4.8 | 0.00 | 0.00 | 0.00 | 87 | 1021.4 |
| 20260507070107 | 11 | 263 | 1.6 | 9.7 | 0.00 | 0.00 | 0.00 | 86 | 1021.4 |
| 20260507064604 | 11 | 0 | 0.0 | 11.3 | 0.00 | 0.00 | 0.00 | 86 | 1021.3 |
| 20260507063102 | 11 | 267 | 1.6 | 8.0 | 0.00 | 0.00 | 0.00 | 86 | 1021.5 |
| 20260507061552 | 11 | 258 | 1.6 | 9.7 | 0.00 | 0.00 | 0.00 | 87 | 1021.3 |
| 20260507060054 | 11 | 0 | 0.0 | 1.6 | 0.00 | 0.00 | 0.00 | 86 | 1021.2 |
| 20260507054557 | 11 | 0 | 0.0 | 1.6 | 0.00 | 0.00 | 0.00 | 87 | 1021.1 |
| 20260507053051 | 11 | 0 | 0.0 | 1.6 | 0.00 | 0.00 | 0.00 | 87 | 1021.1 |
| 20260507051555 | 11 | 179 | 0.0 | 8.0 | 0.00 | 0.00 | 0.00 | 86 | 1021.3 |
| 20260507050053 | 12 | 0 | 0.0 | 9.7 | 0.00 | 0.00 | 0.00 | 85 | 1021.1 |
| 20260507044553 | 12 | 0 | 0.0 | 9.7 | 0.00 | 0.00 | 0.00 | 85 | 1021.1 |
| 20260507043057 | 12 | 257 | 0.0 | 8.0 | 0.00 | 0.00 | 0.00 | 85 | 1021.0 |
| 20260507041555 | 12 | 0 | 0.0 | 9.7 | 0.00 | 0.00 | 0.00 | 85 | 1021.1 |
| 20260507040058 | 13 | 0 | 0.0 | 4.8 | 0.00 | 0.00 | 0.00 | 86 | 1020.7 |
| 20260507034550 | 13 | 0 | 0.0 | 3.2 | 0.00 | 0.00 | 0.00 | 87 | 1020.6 |
| 20260507033051 | 13 | 0 | 0.0 | 3.2 | 0.00 | 0.00 | 0.00 | 86 | 1020.5 |
| 20260507031548 | 13 | 0 | 0.0 | 3.2 | 0.00 | 0.00 | 0.00 | 85 | 1020.3 |
| 20260507030054 | 14 | 272 | 0.0 | 3.2 | 0.00 | 0.00 | 0.00 | 83 | 1020.1 |
| 20260507024548 | 15 | 0 | 0.0 | 4.8 | 0.00 | 0.00 | 0.00 | 82 | 1020.0 |
| 20260507023051 | 15 | 0 | 0.0 | 3.2 | 0.00 | 0.00 | 0.00 | 81 | 1020.0 |
| 20260507021552 | 16 | 0 | 1.6 | 9.7 | 0.00 | 0.00 | 0.00 | 80 | 1020.0 |
| 20260507020053 | 16 | 242 | 0.0 | 11.3 | 0.00 | 0.00 | 0.00 | 81 | 1020.1 |
| 20260507014557 | 16 | 0 | 0.0 | 4.8 | 0.00 | 0.00 | 0.00 | 81 | 1020.2 |
| 20260507013108 | 16 | 0 | 0.0 | 1.6 | 0.00 | 0.00 | 0.00 | 81 | 1020.2 |
| 20260507011550 | 16 | 0 | 0.0 | 4.8 | 0.00 | 0.00 | 0.00 | 80 | 1020.3 |
| 20260507004555 | 16 | 320 | 0.0 | 4.8 | 0.00 | 0.00 | 0.00 | 79 | 1020.3 |
| 20260507003053 | 16 | 0 | 0.0 | 6.4 | 0.00 | 0.00 | 0.00 | 77 | 1020.3 |
| 20260507001555 | 16 | 0 | 0.0 | 6.4 | 0.00 | 0.00 | 0.00 | 77 | 1020.4 |
| 20260507000054 | 17 | 348 | 0.0 | 6.4 | 0.00 | 0.00 | 0.00 | 76 | 1020.3 |
| 20260506234555 | 17 | 5 | 0.0 | 8.0 | 0.00 | 0.00 | 0.00 | 74 | 1020.2 |
| 20260506233106 | 17 | 286 | 0.0 | 4.8 | 0.00 | 0.00 | 0.00 | 76 | 1020.4 |
| 20260506231605 | 17 | 0 | 1.6 | 9.7 | 0.00 | 0.00 | 0.00 | 74 | 1020.4 |
| 20260506230103 | 16 | 0 | 0.0 | 9.7 | 0.00 | 0.00 | 0.00 | 79 | 1020.4 |
| 20260506224556 | 16 | 0 | 0.0 | 4.8 | 0.00 | 0.00 | 0.00 | 79 | 1020.6 |
| 20260506223055 | 16 | 345 | 1.6 | 6.4 | 0.00 | 0.00 | 0.00 | 77 | 1020.7 |
| 20260506221559 | 16 | 0 | 1.6 | 9.7 | 0.00 | 0.00 | 0.00 | 77 | 1020.8 |
| 20260506220059 | 17 | 273 | 0.0 | 6.4 | 0.00 | 0.00 | 0.00 | 78 | 1020.8 |
| 20260506214600 | 17 | 0 | 0.0 | 6.4 | 0.00 | 0.00 | 0.00 | 79 | 1020.7 |